Flag for Canada Weather past 2 weeks in Nanaimo, British Columbia, Canada

Now
76 °F

Mild.


Feels Like: 78 °F
Forecast: 61 / 83 °F
Wind: 3 mph from Southeast

Location: Entrance Island

Current Time: Jul 29, 2014 at 4:35:51 PM

Latest Report: Jul 29, 2014 at 4:00 PM


Visibility: N/A

Pressure: 30.08 "Hg

Humidity: 56%

Dew point: 59 °F

Location of NanaimoLocation

Historic Weather in Nanaimo — Graph

°F

Nanaimo temperature yesterday

Maximum temperature yesterday: 75 °F (at 6:00 PM)
Minimum temperature yesterday: 66 °F (at 3:00 AM)
Average temperature yesterday: 69 °F

Past Weeks' High & Low Weather Summary

 TemperatureHumidityPressure
High79 °F (Jul 14, 6:00 PM)93% (Jul 19, 4:00 AM)30.21 "Hg (Jul 19, 4:00 AM)
Low57 °F (Jul 24, 5:00 AM)44% (Jul 14, 6:00 PM)29.86 "Hg (Jul 19, 8:00 PM)
Average65 °F73%30.03 "Hg
* Reported Jul 14 3:00 PM — Jul 29 3:00 PM, Nanaimo, Weather by CustomWeather, © 2014

Note: Actual official high and low records may vary slightly from our data, if they occured in-between our weather recording intervals... More about our weather records

Advertising

Nanaimo weather history for previous 24 hours

 ConditionsComfort  
Time TempWeatherWind HumidityBarometerVisibility
3:00 PM
Jul 29
75 °FMild.5 mph65%30.09 "HgN/A
2:00 PM73 °FMild.6 mph62%30.11 "HgN/A
1:00 PM72 °FMild.6 mph67%30.12 "HgN/A
12:00 PM71 °FMild.7 mph72%30.12 "HgN/A
11:00 AM69 °FMild.7 mph74%30.13 "HgN/A
10:00 AM70 °FMild.5 mph66%30.12 "HgN/A
9:00 AM69 °FMild.5 mph67%30.12 "HgN/A
8:00 AM67 °FMild.2 mph74%30.12 "HgN/A
7:00 AM67 °FMild.No wind80%30.11 "HgN/A
6:00 AM65 °FMild.1 mph87%30.11 "HgN/A
5:00 AM64 °FMild.3 mph93%30.09 "HgN/A
4:00 AM66 °FMild.No wind87%30.08 "HgN/A
3:00 AM67 °FMild.1 mph86%30.07 "HgN/A
2:00 AM67 °FMild.1 mph77%30.07 "HgN/A
1:00 AM67 °FMild.2 mph84%30.06 "HgN/A
12:00 AM69 °FMild.7 mph82%30.06 "HgN/A
11:00 PM
Jul 28
69 °FMild.5 mph86%30.05 "HgN/A
10:00 PM70 °FMild.5 mph87%30.04 "HgN/A
9:00 PM71 °FMild.1 mph83%30.03 "HgN/A
8:00 PM74 °FMild.2 mph70%30.03 "HgN/A
7:00 PM75 °FMild.3 mph71%30.04 "HgN/A
6:00 PM75 °FMild.2 mph67%30.05 "HgN/A
5:00 PM73 °FMild.2 mph60%30.06 "HgN/A
4:00 PM72 °FMild.5 mph70%30.07 "HgN/A
Weather by CustomWeather, © 2014

See weather overviewHow to use our weather pages